• In Uzbekistan
  • List of Countries
  • For 7 days
  • Water Temperature
  • Satellite Maps
  • Weather Map
  • Weather Widgets
  • user-avatar
    Login

    Hourly Weather Kos

    Today, 16 January, Tuesday

    Time Temperature Precipitation Wind Pressure Humidity
    00:00 +8°C° 0 mm 2 mps 771 mmHg 71%
    01:00 +8°C° 0 mm 2 mps 770 mmHg 71%
    02:00 +8°C° 0 mm 2 mps 770 mmHg 67%
    03:00 +8°C° 0 mm 2 mps 770 mmHg 69%
    04:00 +8°C° 0 mm 2 mps 770 mmHg 70%
    05:00 +8°C° 0 mm 2 mps 770 mmHg 71%
    06:00 +8°C° 0.2 mm 2 mps 769 mmHg 75%
    07:00 +8°C° 0.2 mm 2 mps 769 mmHg 78%
    08:00 +8°C° 0.2 mm 3 mps 769 mmHg 82%
    09:00 +8°C° 0.7 mm 3 mps 768 mmHg 85%
    10:00 +8°C° 0.7 mm 4 mps 768 mmHg 89%
    11:00 +8°C° 0.7 mm 5 mps 768 mmHg 92%
    12:00 +8°C° 0.4 mm 5 mps 768 mmHg 93%
    13:00 +8°C° 0.4 mm 6 mps 767 mmHg 94%
    14:00 +9°C° 0.4 mm 7 mps 767 mmHg 94%
    15:00 +9°C° 0.7 mm 7 mps 766 mmHg 94%
    16:00 +9°C° 0.7 mm 7 mps 766 mmHg 94%
    17:00 +10°C° 0.7 mm 8 mps 765 mmHg 94%
    18:00 +9°C° 1.1 mm 8 mps 765 mmHg 95%
    19:00 +9°C° 1.1 mm 8 mps 765 mmHg 95%
    20:00 +9°C° 1.1 mm 8 mps 764 mmHg 96%
    21:00 +9°C° 0.8 mm 8 mps 764 mmHg 96%
    22:00 +7°C° 0.8 mm 8 mps 764 mmHg 96%
    23:00 +7°C° 0.8 mm 8 mps 764 mmHg 96%

    Tomorrow, 17 January, Wednesday

    Time Temperature Precipitation Wind Pressure Humidity
    00:00 +8°C° 0.4 mm 7 mps 764 mmHg 96%
    01:00 +8°C° 0.4 mm 7 mps 763 mmHg 95%
    02:00 +8°C° 0.4 mm 6 mps 763 mmHg 95%
    03:00 +8°C° 0.1 mm 6 mps 763 mmHg 95%
    04:00 +7°C° 0.1 mm 5 mps 763 mmHg 95%
    05:00 +7°C° 0.1 mm 4 mps 762 mmHg 95%
    06:00 +7°C° 0 mm 4 mps 762 mmHg 95%
    07:00 +7°C° 0 mm 4 mps 762 mmHg 95%
    08:00 +7°C° 0 mm 4 mps 762 mmHg 95%
    09:00 +10°C° 0 mm 4 mps 762 mmHg 90%
    10:00 +12°C° 0 mm 3 mps 762 mmHg 84%
    11:00 +14°C° 0 mm 3 mps 762 mmHg 78%
    12:00 +15°C° 0 mm 4 mps 762 mmHg 75%
    13:00 +15°C° 0 mm 4 mps 761 mmHg 73%
    14:00 +15°C° 0 mm 5 mps 761 mmHg 70%
    15:00 +14°C° 0 mm 5 mps 760 mmHg 75%
    16:00 +13°C° 0 mm 6 mps 760 mmHg 80%
    17:00 +12°C° 0 mm 7 mps 760 mmHg 85%
    18:00 +12°C° 0.2 mm 8 mps 759 mmHg 87%
    19:00 +12°C° 0.2 mm 9 mps 759 mmHg 88%
    20:00 +12°C° 0.2 mm 10 mps 759 mmHg 90%
    21:00 +12°C° 0.3 mm 10 mps 759 mmHg 91%
    22:00 +12°C° 0.3 mm 11 mps 758 mmHg 93%
    23:00 +12°C° 0.3 mm 11 mps 758 mmHg 94%

    Day after tomorrow, 18 January, Thursday

    Time Temperature Precipitation Wind Pressure Humidity
    00:00 +13°C° 0.3 mm 12 mps 757 mmHg 93%
    01:00 +13°C° 0.3 mm 12 mps 757 mmHg 92%
    02:00 +13°C° 0.3 mm 13 mps 756 mmHg 90%
    03:00 +13°C° 0.6 mm 14 mps 756 mmHg 88%
    04:00 +13°C° 0.6 mm 14 mps 755 mmHg 85%
    05:00 +13°C° 0.6 mm 14 mps 755 mmHg 82%
    06:00 +10°C° 0.5 mm 15 mps 755 mmHg 84%
    07:00 +9°C° 0.5 mm 16 mps 755 mmHg 86%
    08:00 +7°C° 0.5 mm 16 mps 756 mmHg 89%
    09:00 +6°C° 0.2 mm 17 mps 757 mmHg 83%
    10:00 +6°C° 0.2 mm 18 mps 758 mmHg 76%
    11:00 +6°C° 0.2 mm 18 mps 759 mmHg 70%
    12:00 +6°C° 0.2 mm 18 mps 760 mmHg 62%
    13:00 +6°C° 0.2 mm 17 mps 760 mmHg 54%
    14:00 +5°C° 0.2 mm 17 mps 761 mmHg 45%
    15:00 +5°C° 0.1 mm 17 mps 762 mmHg 47%
    16:00 +3°C° 0.1 mm 17 mps 762 mmHg 48%
    17:00 +2°C° 0.1 mm 17 mps 763 mmHg 49%
    18:00 +2°C° 0 mm 16 mps 764 mmHg 51%
    19:00 +1°C° 0 mm 14 mps 765 mmHg 52%
    20:00 0°C° 0 mm 13 mps 766 mmHg 54%
    21:00 0°C° 0 mm 12 mps 766 mmHg 53%
    22:00 +1°C° 0 mm 11 mps 767 mmHg 53%
    23:00 +1°C° 0 mm 10 mps 767 mmHg 52%

    19 January, Friday

    Time Temperature Precipitation Wind Pressure Humidity
    00:00 +1°C° 0 mm 9 mps 767 mmHg 53%
    01:00 +1°C° 0 mm 8 mps 767 mmHg 53%
    02:00 +2°C° 0 mm 7 mps 767 mmHg 54%
    03:00 0°C° 0 mm 7 mps 767 mmHg 55%
    04:00 0°C° 0 mm 7 mps 767 mmHg 56%
    05:00 0°C° 0 mm 7 mps 767 mmHg 57%
    06:00 +1°C° 0 mm 6 mps 767 mmHg 56%
    07:00 +1°C° 0 mm 5 mps 767 mmHg 56%
    08:00 +1°C° 0 mm 4 mps 767 mmHg 56%
    09:00 +5°C° 0 mm 4 mps 767 mmHg 51%
    10:00 +7°C° 0 mm 4 mps 767 mmHg 46%
    11:00 +11°C° 0 mm 3 mps 767 mmHg 41%
    12:00 +12°C° 0 mm 4 mps 767 mmHg 41%
    13:00 +13°C° 0 mm 4 mps 766 mmHg 40%
    14:00 +14°C° 0 mm 4 mps 766 mmHg 40%
    15:00 +12°C° 0 mm 5 mps 766 mmHg 47%
    16:00 +10°C° 0 mm 6 mps 766 mmHg 53%
    17:00 +9°C° 0 mm 6 mps 766 mmHg 60%
    18:00 +9°C° 0 mm 6 mps 766 mmHg 63%
    19:00 +9°C° 0 mm 7 mps 766 mmHg 66%
    20:00 +9°C° 0 mm 7 mps 766 mmHg 69%
    21:00 +9°C° 0 mm 7 mps 767 mmHg 74%
    22:00 +9°C° 0 mm 7 mps 767 mmHg 80%
    23:00 +10°C° 0 mm 6 mps 767 mmHg 86%

    20 January, Saturday

    Time Temperature Precipitation Wind Pressure Humidity
    00:00 +10°C° 0 mm 6 mps 767 mmHg 86%
    01:00 +10°C° 0 mm 6 mps 767 mmHg 87%
    02:00 +10°C° 0 mm 5 mps 767 mmHg 88%
    03:00 +10°C° 0 mm 5 mps 766 mmHg 89%
    04:00 +10°C° 0 mm 5 mps 766 mmHg 89%
    05:00 +10°C° 0 mm 5 mps 766 mmHg 89%
    06:00 +10°C° 0 mm 5 mps 766 mmHg 89%
    07:00 +10°C° 0 mm 6 mps 766 mmHg 89%
    08:00 +10°C° 0 mm 7 mps 766 mmHg 89%
    09:00 +11°C° 0 mm 7 mps 766 mmHg 84%
    10:00 +12°C° 0 mm 8 mps 766 mmHg 78%
    11:00 +13°C° 0 mm 9 mps 766 mmHg 72%
    12:00 +14°C° 0 mm 10 mps 765 mmHg 72%
    13:00 +14°C° 0 mm 10 mps 765 mmHg 71%
    14:00 +14°C° 0 mm 11 mps 764 mmHg 70%
    15:00 +14°C° 0.1 mm 11 mps 764 mmHg 74%
    16:00 +13°C° 0.1 mm 12 mps 764 mmHg 79%
    17:00 +12°C° 0.1 mm 12 mps 764 mmHg 83%
    18:00 +12°C° 0 mm 13 mps 763 mmHg 85%
    19:00 +12°C° 0 mm 13 mps 763 mmHg 86%
    20:00 +10°C° 0 mm 14 mps 763 mmHg 87%
    21:00 +10°C° 0 mm 14 mps 763 mmHg 86%
    22:00 +10°C° 0 mm 15 mps 763 mmHg 86%
    23:00 +10°C° 0 mm 16 mps 762 mmHg 85%

    21 January, Sunday

    Time Temperature Precipitation Wind Pressure Humidity
    00:00 +11°C° 0.1 mm 17 mps 762 mmHg 84%
    01:00 +11°C° 0.1 mm 17 mps 761 mmHg 82%
    02:00 +11°C° 0.1 mm 18 mps 761 mmHg 81%
    03:00 +11°C° 0.4 mm 18 mps 760 mmHg 81%
    04:00 +11°C° 0.4 mm 18 mps 760 mmHg 82%
    05:00 +12°C° 0.4 mm 18 mps 759 mmHg 82%
    06:00 +12°C° 0.4 mm 18 mps 758 mmHg 82%
    07:00 +12°C° 0.4 mm 18 mps 758 mmHg 82%
    08:00 +12°C° 0.4 mm 18 mps 758 mmHg 83%
    09:00 +12°C° 0.3 mm 18 mps 757 mmHg 81%
    10:00 +14°C° 0.3 mm 18 mps 757 mmHg 79%
    11:00 +14°C° 0.3 mm 18 mps 756 mmHg 77%
    12:00 +14°C° 0.2 mm 18 mps 755 mmHg 77%
    13:00 +14°C° 0.2 mm 18 mps 754 mmHg 77%
    14:00 +14°C° 0.2 mm 18 mps 753 mmHg 78%
    15:00 +14°C° 0.3 mm 17 mps 753 mmHg 78%
    16:00 +14°C° 0.3 mm 17 mps 752 mmHg 78%
    17:00 +13°C° 0.3 mm 17 mps 752 mmHg 78%
    18:00 +13°C° 1.4 mm 17 mps 752 mmHg 82%
    19:00 +11°C° 1.4 mm 16 mps 753 mmHg 86%
    20:00 +10°C° 1.4 mm 15 mps 753 mmHg 90%
    21:00 +10°C° 0.2 mm 15 mps 753 mmHg 86%
    22:00 +10°C° 0.2 mm 14 mps 754 mmHg 82%
    23:00 +9°C° 0.2 mm 14 mps 754 mmHg 78%
    Show more